| time (UTC) | temp F | wind direction | speed MPH | gust MPH | rain 1hr in | rain 24hr in | rain mn in | humidity % | barometer mb |
| 20260507120156 | 51 | 322 | 3.0 | 5.0 | 0.00 | 0.00 | 0.00 | 73 | 1020.3 |
| 20260507115648 | 51 | 335 | 4.0 | 5.0 | 0.00 | 0.00 | 0.00 | 73 | 1020.3 |
| 20260507114850 | 51 | 337 | 4.0 | 6.0 | 0.00 | 0.00 | 0.00 | 73 | 1020.4 |
| 20260507114350 | 51 | 304 | 3.0 | 6.0 | 0.00 | 0.00 | 0.00 | 73 | 1020.4 |
| 20260507113849 | 51 | 354 | 2.0 | 5.0 | 0.00 | 0.00 | 0.00 | 73 | 1020.4 |
| 20260507113349 | 51 | 341 | 2.0 | 5.0 | 0.00 | 0.00 | 0.00 | 73 | 1020.5 |
| 20260507112847 | 51 | 337 | 2.0 | 3.0 | 0.00 | 0.00 | 0.00 | 74 | 1020.5 |
| 20260507112408 | 51 | 346 | 2.0 | 3.0 | 0.00 | 0.00 | 0.00 | 73 | 1020.5 |
| 20260507111345 | 51 | 302 | 1.0 | 3.0 | 0.00 | 0.00 | 0.00 | 74 | 1020.4 |
| 20260507110835 | 51 | 306 | 1.0 | 2.0 | 0.00 | 0.00 | 0.00 | 74 | 1020.4 |
| 20260507110332 | 51 | 4 | 1.0 | 2.0 | 0.00 | 0.00 | 0.00 | 74 | 1020.5 |
| 20260507110104 | 52 | 344 | 1.0 | 3.0 | 0.00 | 0.00 | 0.00 | 75 | 1020.5 |
| 20260507105331 | 52 | 281 | 2.0 | 3.0 | 0.00 | 0.00 | 0.00 | 74 | 1020.5 |
| 20260507104823 | 52 | 240 | 2.0 | 4.0 | 0.00 | 0.00 | 0.00 | 74 | 1020.5 |
| 20260507104327 | 52 | 256 | 2.0 | 4.0 | 0.00 | 0.00 | 0.00 | 74 | 1020.5 |
| 20260507103823 | 52 | 266 | 2.0 | 4.0 | 0.00 | 0.00 | 0.00 | 74 | 1020.5 |
| 20260507103322 | 52 | 254 | 1.0 | 4.0 | 0.00 | 0.00 | 0.00 | 75 | 1020.5 |
| 20260507102819 | 52 | 280 | 1.0 | 3.0 | 0.00 | 0.00 | 0.00 | 75 | 1020.5 |
| 20260507102307 | 52 | 236 | 2.0 | 3.0 | 0.00 | 0.00 | 0.00 | 75 | 1020.5 |
| 20260507101809 | 52 | 279 | 2.0 | 3.0 | 0.00 | 0.00 | 0.00 | 75 | 1020.6 |
| 20260507101308 | 52 | 280 | 2.0 | 3.0 | 0.00 | 0.00 | 0.00 | 74 | 1020.6 |
| 20260507100809 | 52 | 259 | 1.0 | 3.0 | 0.00 | 0.00 | 0.00 | 75 | 1020.6 |
| 20260507100303 | 52 | 284 | 2.0 | 4.0 | 0.00 | 0.00 | 0.00 | 74 | 1020.4 |
| 20260507095802 | 52 | 218 | 2.0 | 5.0 | 0.00 | 0.00 | 0.00 | 74 | 1020.4 |
| 20260507095306 | 52 | 207 | 2.0 | 5.0 | 0.00 | 0.00 | 0.00 | 74 | 1020.4 |
| 20260507094802 | 52 | 215 | 2.0 | 4.0 | 0.00 | 0.00 | 0.00 | 75 | 1020.6 |
| 20260507094259 | 52 | 218 | 2.0 | 4.0 | 0.00 | 0.00 | 0.00 | 75 | 1020.6 |
| 20260507093751 | 52 | 237 | 2.0 | 4.0 | 0.00 | 0.00 | 0.00 | 74 | 1020.6 |
| 20260507093246 | 52 | 217 | 2.0 | 5.0 | 0.00 | 0.00 | 0.00 | 75 | 1020.7 |
| 20260507092731 | 52 | 233 | 3.0 | 5.0 | 0.00 | 0.00 | 0.00 | 75 | 1020.7 |
| 20260507092232 | 52 | 202 | 3.0 | 5.0 | 0.00 | 0.00 | 0.00 | 75 | 1020.7 |
| 20260507091724 | 52 | 241 | 2.0 | 6.0 | 0.00 | 0.00 | 0.00 | 75 | 1020.7 |
| 20260507091222 | 52 | 226 | 2.0 | 6.0 | 0.00 | 0.00 | 0.00 | 75 | 1020.7 |
| 20260507090715 | 52 | 281 | 2.0 | 4.0 | 0.00 | 0.00 | 0.00 | 75 | 1020.7 |
| 20260507090208 | 53 | 263 | 2.0 | 5.0 | 0.00 | 0.00 | 0.00 | 74 | 1020.7 |
| 20260507085703 | 53 | 239 | 3.0 | 6.0 | 0.00 | 0.00 | 0.00 | 74 | 1020.7 |
| 20260507085204 | 53 | 249 | 2.0 | 6.0 | 0.00 | 0.00 | 0.00 | 74 | 1020.7 |
| 20260507084707 | 53 | 216 | 2.0 | 4.0 | 0.00 | 0.00 | 0.00 | 74 | 1020.7 |
| 20260507084203 | 53 | 250 | 3.0 | 7.0 | 0.00 | 0.00 | 0.00 | 74 | 1020.7 |
| 20260507083703 | 53 | 241 | 4.0 | 7.0 | 0.00 | 0.00 | 0.00 | 73 | 1020.7 |
| 20260507083201 | 53 | 253 | 4.0 | 6.0 | 0.00 | 0.00 | 0.00 | 74 | 1020.7 |
| 20260507082702 | 53 | 258 | 3.0 | 6.0 | 0.00 | 0.00 | 0.00 | 73 | 1020.7 |
| 20260507081950 | 53 | 221 | 3.0 | 6.0 | 0.00 | 0.00 | 0.00 | 72 | 1020.7 |
| 20260507081201 | 53 | 246 | 3.0 | 6.0 | 0.00 | 0.00 | 0.00 | 72 | 1020.7 |
| 20260507080706 | 53 | 256 | 3.0 | 5.0 | 0.00 | 0.00 | 0.00 | 72 | 1020.7 |
| 20260507080204 | 53 | 244 | 3.0 | 6.0 | 0.00 | 0.00 | 0.00 | 72 | 1020.7 |
| 20260507075702 | 53 | 217 | 3.0 | 6.0 | 0.00 | 0.00 | 0.00 | 72 | 1020.7 |
| 20260507075202 | 53 | 258 | 3.0 | 7.0 | 0.00 | 0.00 | 0.00 | 71 | 1020.7 |
| 20260507074701 | 53 | 273 | 4.0 | 7.0 | 0.00 | 0.00 | 0.00 | 71 | 1020.7 |
| 20260507074203 | 53 | 267 | 4.0 | 10.0 | 0.00 | 0.00 | 0.00 | 71 | 1020.7 |
| 20260507073700 | 53 | 244 | 4.0 | 10.0 | 0.00 | 0.00 | 0.00 | 70 | 1020.7 |
| 20260507073159 | 53 | 217 | 3.0 | 7.0 | 0.00 | 0.00 | 0.00 | 70 | 1020.6 |
| 20260507072653 | 53 | 264 | 3.0 | 7.0 | 0.00 | 0.00 | 0.00 | 70 | 1020.6 |
| 20260507072147 | 53 | 265 | 2.0 | 6.0 | 0.00 | 0.00 | 0.00 | 71 | 1020.6 |
| 20260507071924 | 53 | 275 | 3.0 | 6.0 | 0.00 | 0.00 | 0.00 | 70 | 1020.7 |
| 20260507071141 | 53 | 294 | 3.0 | 6.0 | 0.00 | 0.00 | 0.00 | 70 | 1020.7 |
| 20260507070640 | 53 | 229 | 3.0 | 5.0 | 0.00 | 0.00 | 0.00 | 70 | 1020.7 |
| 20260507070140 | 53 | 229 | 3.0 | 6.0 | 0.00 | 0.00 | 0.00 | 71 | 1020.6 |
| 20260507065637 | 53 | 242 | 3.0 | 9.0 | 0.00 | 0.00 | 0.00 | 70 | 1020.6 |
| 20260507065137 | 53 | 242 | 3.0 | 9.0 | 0.00 | 0.00 | 0.00 | 70 | 1020.6 |
| 20260507064637 | 53 | 258 | 3.0 | 7.0 | 0.00 | 0.00 | 0.00 | 70 | 1020.7 |
| 20260507064135 | 53 | 237 | 3.0 | 7.0 | 0.00 | 0.00 | 0.00 | 70 | 1020.7 |
| 20260507063632 | 54 | 194 | 4.0 | 9.0 | 0.00 | 0.00 | 0.00 | 70 | 1020.7 |
| 20260507063133 | 53 | 188 | 5.0 | 9.0 | 0.00 | 0.00 | 0.00 | 70 | 1020.7 |
| 20260507062633 | 53 | 181 | 5.0 | 10.0 | 0.00 | 0.00 | 0.00 | 71 | 1020.7 |
| 20260507062422 | 53 | 186 | 4.0 | 10.0 | 0.00 | 0.00 | 0.00 | 70 | 1020.7 |
| 20260507061633 | 54 | 193 | 3.0 | 9.0 | 0.00 | 0.00 | 0.00 | 71 | 1020.7 |
| 20260507061137 | 54 | 204 | 3.0 | 4.0 | 0.00 | 0.00 | 0.00 | 70 | 1020.7 |
| 20260507060631 | 54 | 223 | 2.0 | 5.0 | 0.00 | 0.00 | 0.00 | 70 | 1020.7 |
| 20260507060131 | 54 | 242 | 2.0 | 5.0 | 0.00 | 0.00 | 0.00 | 70 | 1020.7 |
| 20260507055637 | 54 | 203 | 2.0 | 5.0 | 0.00 | 0.00 | 0.00 | 71 | 1020.7 |
| 20260507055135 | 54 | 257 | 3.0 | 9.0 | 0.00 | 0.00 | 0.00 | 71 | 1020.7 |
| 20260507054658 | 54 | 237 | 4.0 | 9.0 | 0.00 | 0.00 | 0.00 | 70 | 1020.7 |
| 20260507053631 | 54 | 201 | 3.0 | 7.0 | 0.00 | 0.00 | 0.00 | 70 | 1020.7 |
| 20260507053121 | 54 | 225 | 3.0 | 6.0 | 0.00 | 0.00 | 0.00 | 70 | 1020.7 |
| 20260507052604 | 54 | 275 | 2.0 | 5.0 | 0.00 | 0.00 | 0.00 | 70 | 1020.7 |
| 20260507052056 | 54 | 252 | 2.0 | 5.0 | 0.00 | 0.00 | 0.00 | 70 | 1020.7 |
| 20260507051838 | 54 | 263 | 2.0 | 4.0 | 0.00 | 0.00 | 0.00 | 70 | 1020.7 |
| 20260507051050 | 54 | 246 | 2.0 | 4.0 | 0.00 | 0.00 | 0.00 | 70 | 1020.7 |
| 20260507050542 | 54 | 281 | 3.0 | 5.0 | 0.00 | 0.00 | 0.00 | 70 | 1020.7 |
| 20260507050036 | 54 | 263 | 4.0 | 8.0 | 0.00 | 0.00 | 0.00 | 69 | 1020.7 |
| 20260507045533 | 55 | 271 | 6.0 | 13.0 | 0.00 | 0.00 | 0.00 | 69 | 1020.7 |
| 20260507045035 | 55 | 284 | 6.0 | 13.0 | 0.00 | 0.00 | 0.00 | 69 | 1020.7 |
| 20260507044534 | 55 | 285 | 4.0 | 10.0 | 0.00 | 0.00 | 0.00 | 68 | 1020.7 |
| 20260507044032 | 55 | 228 | 4.0 | 11.0 | 0.00 | 0.00 | 0.00 | 68 | 1020.7 |
| 20260507043531 | 55 | 309 | 5.0 | 11.0 | 0.00 | 0.00 | 0.00 | 69 | 1020.7 |
| 20260507043031 | 55 | 302 | 6.0 | 14.0 | 0.00 | 0.00 | 0.00 | 69 | 1020.7 |
| 20260507042532 | 55 | 265 | 6.0 | 14.0 | 0.00 | 0.00 | 0.00 | 69 | 1020.7 |
| 20260507042031 | 55 | 266 | 6.0 | 12.0 | 0.00 | 0.00 | 0.00 | 69 | 1020.7 |
| 20260507041540 | 55 | 279 | 7.0 | 14.0 | 0.00 | 0.00 | 0.00 | 69 | 1020.7 |
| 20260507041034 | 55 | 309 | 5.0 | 14.0 | 0.00 | 0.00 | 0.00 | 70 | 1020.7 |
| 20260507040603 | 55 | 290 | 5.0 | 13.0 | 0.00 | 0.00 | 0.00 | 71 | 1020.7 |
| 20260507035817 | 55 | 261 | 8.0 | 15.0 | 0.00 | 0.00 | 0.00 | 72 | 1020.7 |
| 20260507035315 | 55 | 262 | 7.0 | 15.0 | 0.00 | 0.00 | 0.00 | 72 | 1020.6 |
| 20260507034531 | 55 | 286 | 5.0 | 10.0 | 0.00 | 0.00 | 0.00 | 72 | 1020.6 |
| 20260507034033 | 55 | 262 | 5.0 | 10.0 | 0.00 | 0.00 | 0.00 | 72 | 1020.6 |
| 20260507033812 | 55 | 269 | 7.0 | 14.0 | 0.00 | 0.00 | 0.00 | 72 | 1020.4 |
| 20260507033034 | 55 | 334 | 8.0 | 14.0 | 0.00 | 0.00 | 0.00 | 72 | 1020.4 |
| 20260507032806 | 55 | 279 | 9.0 | 16.0 | 0.00 | 0.00 | 0.00 | 72 | 1020.4 |
| 20260507032025 | 55 | 343 | 8.0 | 16.0 | 0.00 | 0.00 | 0.00 | 72 | 1020.4 |
| 20260507031523 | 55 | 253 | 7.0 | 13.0 | 0.00 | 0.00 | 0.00 | 70 | 1020.4 |
| 20260507031024 | 55 | 278 | 7.0 | 14.0 | 0.00 | 0.00 | 0.00 | 71 | 1020.4 |
| 20260507030523 | 56 | 283 | 6.0 | 14.0 | 0.00 | 0.00 | 0.00 | 71 | 1020.2 |
| 20260507030021 | 56 | 299 | 5.0 | 11.0 | 0.00 | 0.00 | 0.00 | 70 | 1020.2 |
| 20260507025809 | 56 | 290 | 6.0 | 11.0 | 0.00 | 0.00 | 0.00 | 70 | 1020.2 |
| 20260507025018 | 56 | 256 | 5.0 | 11.0 | 0.00 | 0.00 | 0.00 | 70 | 1020.2 |
| 20260507024515 | 56 | 287 | 5.0 | 11.0 | 0.00 | 0.00 | 0.00 | 70 | 1020.2 |
| 20260507024014 | 56 | 310 | 5.0 | 11.0 | 0.00 | 0.00 | 0.00 | 70 | 1020.2 |
| 20260507023516 | 56 | 294 | 6.0 | 11.0 | 0.00 | 0.00 | 0.00 | 69 | 1020.0 |
| 20260507023015 | 56 | 295 | 6.0 | 11.0 | 0.00 | 0.00 | 0.00 | 69 | 1020.0 |
| 20260507022513 | 56 | 305 | 6.0 | 13.0 | 0.00 | 0.00 | 0.00 | 70 | 1020.0 |
| 20260507022012 | 56 | 313 | 7.0 | 14.0 | 0.00 | 0.00 | 0.00 | 71 | 1020.1 |
| 20260507021514 | 56 | 307 | 9.0 | 15.0 | 0.00 | 0.00 | 0.00 | 70 | 1020.1 |
| 20260507021014 | 56 | 308 | 9.0 | 15.0 | 0.00 | 0.00 | 0.00 | 71 | 1020.1 |
| 20260507020511 | 56 | 331 | 8.0 | 14.0 | 0.00 | 0.00 | 0.00 | 70 | 1020.1 |
| 20260507020010 | 56 | 286 | 8.0 | 14.0 | 0.00 | 0.00 | 0.00 | 71 | 1020.1 |
| 20260507015532 | 56 | 243 | 7.0 | 12.0 | 0.00 | 0.00 | 0.00 | 71 | 1020.1 |
| 20260507014501 | 56 | 291 | 10.0 | 20.0 | 0.00 | 0.00 | 0.00 | 71 | 1020.1 |
| 20260507013952 | 56 | 311 | 7.0 | 16.0 | 0.00 | 0.00 | 0.00 | 69 | 1020.1 |
| 20260507013448 | 57 | 333 | 5.0 | 12.0 | 0.00 | 0.00 | 0.00 | 68 | 1020.1 |
| 20260507012942 | 57 | 304 | 6.0 | 13.0 | 0.00 | 0.00 | 0.00 | 68 | 1020.1 |
| 20260507012437 | 57 | 321 | 5.0 | 13.0 | 0.00 | 0.00 | 0.00 | 68 | 1020.1 |
| 20260507011937 | 58 | 250 | 3.0 | 12.0 | 0.00 | 0.00 | 0.00 | 67 | 1020.1 |
| 20260507011439 | 58 | 239 | 4.0 | 9.0 | 0.00 | 0.00 | 0.00 | 67 | 1020.1 |
| 20260507010940 | 58 | 269 | 6.0 | 14.0 | 0.00 | 0.00 | 0.00 | 67 | 1020.1 |
| 20260507010439 | 58 | 334 | 5.0 | 14.0 | 0.00 | 0.00 | 0.00 | 67 | 1020.1 |
| 20260507005935 | 58 | 294 | 4.0 | 10.0 | 0.00 | 0.00 | 0.00 | 67 | 1020.1 |
| 20260507005433 | 58 | 242 | 5.0 | 12.0 | 0.00 | 0.00 | 0.00 | 66 | 1020.1 |
| 20260507004933 | 58 | 263 | 4.0 | 12.0 | 0.00 | 0.00 | 0.00 | 66 | 1020.0 |
| 20260507004434 | 58 | 264 | 3.0 | 7.0 | 0.00 | 0.00 | 0.00 | 67 | 1020.0 |
| 20260507004000 | 58 | 265 | 5.0 | 10.0 | 0.00 | 0.00 | 0.00 | 67 | 1020.0 |
| 20260507003216 | 58 | 284 | 6.0 | 12.0 | 0.00 | 0.00 | 0.00 | 67 | 1020.0 |
| 20260507002429 | 58 | 248 | 6.0 | 17.0 | 0.00 | 0.00 | 0.00 | 66 | 1020.0 |
| 20260507001931 | 58 | 314 | 6.0 | 17.0 | 0.00 | 0.00 | 0.00 | 67 | 1020.1 |
| 20260507001433 | 58 | 277 | 6.0 | 10.0 | 0.00 | 0.00 | 0.00 | 67 | 1020.1 |
| 20260507000927 | 57 | 298 | 6.0 | 12.0 | 0.00 | 0.00 | 0.00 | 67 | 1020.1 |
| 20260507000420 | 57 | 274 | 7.0 | 15.0 | 0.00 | 0.00 | 0.00 | 66 | 1020.1 |
| 20260506235918 | 57 | 316 | 6.0 | 15.0 | 0.00 | 0.00 | 0.00 | 67 | 1020.1 |
| 20260506235417 | 57 | 293 | 5.0 | 11.0 | 0.00 | 0.00 | 0.00 | 69 | 1020.1 |
| 20260506234917 | 57 | 281 | 5.0 | 13.0 | 0.00 | 0.00 | 0.00 | 70 | 1020.2 |
| 20260506234658 | 57 | 310 | 4.0 | 13.0 | 0.00 | 0.00 | 0.00 | 69 | 1020.2 |
| 20260506233916 | 57 | 304 | 4.0 | 10.0 | 0.00 | 0.00 | 0.00 | 69 | 1020.2 |
| 20260506233417 | 57 | 304 | 5.0 | 10.0 | 0.00 | 0.00 | 0.00 | 70 | 1020.2 |
| 20260506233158 | 57 | 277 | 6.0 | 12.0 | 0.00 | 0.00 | 0.00 | 70 | 1020.2 |
| 20260506232418 | 57 | 272 | 5.0 | 12.0 | 0.00 | 0.00 | 0.00 | 70 | 1020.2 |
| 20260506231911 | 57 | 256 | 3.0 | 6.0 | 0.00 | 0.00 | 0.00 | 70 | 1020.2 |
| 20260506231411 | 57 | 277 | 4.0 | 11.0 | 0.00 | 0.00 | 0.00 | 70 | 1020.2 |
| 20260506230911 | 57 | 313 | 5.0 | 11.0 | 0.00 | 0.00 | 0.00 | 69 | 1020.2 |
| 20260506230416 | 57 | 304 | 6.0 | 11.0 | 0.00 | 0.00 | 0.00 | 68 | 1020.2 |
| 20260506225909 | 57 | 255 | 6.0 | 11.0 | 0.00 | 0.00 | 0.00 | 68 | 1020.2 |
| 20260506225653 | 57 | 247 | 6.0 | 13.0 | 0.00 | 0.00 | 0.00 | 68 | 1020.2 |
| 20260506224907 | 57 | 278 | 6.0 | 13.0 | 0.00 | 0.00 | 0.00 | 69 | 1020.2 |
| 20260506224406 | 57 | 265 | 7.0 | 17.0 | 0.00 | 0.00 | 0.00 | 69 | 1020.2 |
| 20260506224148 | 57 | 224 | 8.0 | 17.0 | 0.00 | 0.00 | 0.00 | 68 | 1020.2 |
| 20260506223405 | 57 | 167 | 7.0 | 13.0 | 0.00 | 0.00 | 0.00 | 69 | 1020.2 |
| 20260506222903 | 57 | 176 | 8.0 | 16.0 | 0.00 | 0.00 | 0.00 | 69 | 1020.2 |
| 20260506222402 | 57 | 212 | 7.0 | 16.0 | 0.00 | 0.00 | 0.00 | 69 | 1020.2 |
| 20260506221906 | 57 | 217 | 6.0 | 13.0 | 0.00 | 0.00 | 0.00 | 69 | 1020.4 |
| 20260506221401 | 57 | 265 | 6.0 | 15.0 | 0.00 | 0.00 | 0.00 | 68 | 1020.4 |
| 20260506220852 | 57 | 190 | 6.0 | 15.0 | 0.00 | 0.00 | 0.00 | 68 | 1020.4 |
| 20260506220358 | 57 | 263 | 6.0 | 12.0 | 0.00 | 0.00 | 0.00 | 67 | 1020.3 |
| 20260506215851 | 57 | 242 | 6.0 | 12.0 | 0.00 | 0.00 | 0.00 | 67 | 1020.3 |
| 20260506215351 | 58 | 274 | 7.0 | 13.0 | 0.00 | 0.00 | 0.00 | 67 | 1020.3 |
| 20260506214853 | 57 | 253 | 7.0 | 15.0 | 0.00 | 0.00 | 0.00 | 66 | 1020.3 |
| 20260506214351 | 57 | 269 | 7.0 | 15.0 | 0.00 | 0.00 | 0.00 | 66 | 1020.3 |
| 20260506213849 | 57 | 252 | 8.0 | 18.0 | 0.00 | 0.00 | 0.00 | 67 | 1020.3 |
| 20260506213349 | 57 | 263 | 6.0 | 18.0 | 0.00 | 0.00 | 0.00 | 67 | 1020.4 |
| 20260506212854 | 57 | 201 | 5.0 | 14.0 | 0.00 | 0.00 | 0.00 | 67 | 1020.4 |
| 20260506212348 | 57 | 230 | 7.0 | 16.0 | 0.00 | 0.00 | 0.00 | 68 | 1020.4 |
| 20260506211838 | 57 | 267 | 7.0 | 16.0 | 0.00 | 0.00 | 0.00 | 68 | 1020.5 |
| 20260506211335 | 57 | 226 | 5.0 | 10.0 | 0.00 | 0.00 | 0.00 | 68 | 1020.5 |
| 20260506211117 | 57 | 221 | 7.0 | 16.0 | 0.00 | 0.00 | 0.00 | 68 | 1020.5 |
| 20260506210335 | 57 | 258 | 7.0 | 17.0 | 0.00 | 0.00 | 0.00 | 68 | 1020.4 |
| 20260506205836 | 57 | 261 | 6.0 | 17.0 | 0.00 | 0.00 | 0.00 | 68 | 1020.4 |
| 20260506205333 | 57 | 248 | 6.0 | 13.0 | 0.00 | 0.00 | 0.00 | 68 | 1020.4 |
| 20260506205127 | 57 | 277 | 6.0 | 12.0 | 0.00 | 0.00 | 0.00 | 69 | 1020.4 |
| 20260506204334 | 56 | 231 | 7.0 | 12.0 | 0.00 | 0.00 | 0.00 | 69 | 1020.4 |
| 20260506203831 | 56 | 260 | 7.0 | 15.0 | 0.00 | 0.00 | 0.00 | 69 | 1020.4 |
| 20260506203329 | 56 | 232 | 7.0 | 15.0 | 0.00 | 0.00 | 0.00 | 70 | 1020.2 |
| 20260506202830 | 57 | 217 | 6.0 | 17.0 | 0.00 | 0.00 | 0.00 | 70 | 1020.2 |
| 20260506202333 | 56 | 282 | 6.0 | 17.0 | 0.00 | 0.00 | 0.00 | 70 | 1020.2 |
| 20260506201829 | 57 | 239 | 5.0 | 12.0 | 0.00 | 0.00 | 0.00 | 70 | 1020.3 |
| 20260506201329 | 56 | 215 | 6.0 | 12.0 | 0.00 | 0.00 | 0.00 | 69 | 1020.3 |
| 20260506200828 | 57 | 226 | 5.0 | 12.0 | 0.00 | 0.00 | 0.00 | 69 | 1020.3 |
| 20260506200329 | 57 | 238 | 6.0 | 12.0 | 0.00 | 0.00 | 0.00 | 69 | 1020.2 |
| 20260506195831 | 56 | 235 | 7.0 | 12.0 | 0.00 | 0.00 | 0.00 | 69 | 1020.2 |
| 20260506195333 | 56 | 226 | 6.0 | 13.0 | 0.00 | 0.00 | 0.00 | 69 | 1020.2 |
| 20260506194830 | 56 | 249 | 6.0 | 13.0 | 0.00 | 0.00 | 0.00 | 69 | 1020.2 |
| 20260506194330 | 57 | 224 | 6.0 | 14.0 | 0.00 | 0.00 | 0.00 | 68 | 1020.2 |
| 20260506193832 | 56 | 183 | 6.0 | 14.0 | 0.00 | 0.00 | 0.00 | 68 | 1020.2 |
| 20260506193331 | 57 | 256 | 4.0 | 12.0 | 0.00 | 0.00 | 0.00 | 69 | 1020.2 |
| 20260506192831 | 56 | 265 | 6.0 | 12.0 | 0.00 | 0.00 | 0.00 | 69 | 1020.2 |
| 20260506192330 | 56 | 208 | 7.0 | 13.0 | 0.00 | 0.00 | 0.00 | 69 | 1020.2 |
| 20260506191829 | 56 | 261 | 7.0 | 14.0 | 0.00 | 0.00 | 0.00 | 69 | 1020.1 |
| 20260506191328 | 56 | 208 | 7.0 | 14.0 | 0.00 | 0.00 | 0.00 | 70 | 1020.1 |
| 20260506190830 | 56 | 159 | 6.0 | 13.0 | 0.00 | 0.00 | 0.00 | 70 | 1020.1 |
| 20260506190321 | 56 | 235 | 6.0 | 12.0 | 0.00 | 0.00 | 0.00 | 70 | 1020.2 |
| 20260506185809 | 56 | 267 | 6.0 | 12.0 | 0.00 | 0.00 | 0.00 | 70 | 1020.2 |
| 20260506185308 | 56 | 248 | 6.0 | 14.0 | 0.00 | 0.00 | 0.00 | 70 | 1020.2 |
| 20260506184808 | 56 | 194 | 6.0 | 14.0 | 0.00 | 0.00 | 0.00 | 71 | 1020.1 |
| 20260506184312 | 56 | 150 | 7.0 | 14.0 | 0.00 | 0.00 | 0.00 | 71 | 1020.1 |
| 20260506184055 | 56 | 229 | 7.0 | 14.0 | 0.00 | 0.00 | 0.00 | 71 | 1020.1 |
| 20260506183600 | 56 | 190 | 6.0 | 14.0 | 0.00 | 0.00 | 0.00 | 70 | 1020.1 |
| 20260506182809 | 56 | 210 | 6.0 | 14.0 | 0.00 | 0.00 | 0.00 | 70 | 1020.1 |
| 20260506182311 | 56 | 255 | 6.0 | 12.0 | 0.00 | 0.00 | 0.00 | 70 | 1020.1 |
| 20260506181805 | 56 | 219 | 7.0 | 14.0 | 0.00 | 0.00 | 0.00 | 70 | 1019.9 |
| 20260506181306 | 56 | 244 | 8.0 | 14.0 | 0.00 | 0.00 | 0.00 | 70 | 1019.9 |
| 20260506180804 | 56 | 264 | 7.0 | 14.0 | 0.00 | 0.00 | 0.00 | 70 | 1019.9 |
| 20260506180304 | 56 | 221 | 7.0 | 13.0 | 0.00 | 0.00 | 0.00 | 68 | 1019.6 |
| 20260506175806 | 56 | 223 | 6.0 | 13.0 | 0.00 | 0.00 | 0.00 | 68 | 1019.6 |
| 20260506175306 | 56 | 204 | 6.0 | 14.0 | 0.00 | 0.00 | 0.00 | 68 | 1019.6 |
| 20260506174802 | 56 | 219 | 6.0 | 14.0 | 0.00 | 0.00 | 0.00 | 68 | 1019.7 |
| 20260506174301 | 56 | 256 | 6.0 | 13.0 | 0.00 | 0.00 | 0.00 | 69 | 1019.7 |
| 20260506173802 | 56 | 265 | 7.0 | 14.0 | 0.00 | 0.00 | 0.00 | 69 | 1019.7 |
| 20260506173301 | 56 | 231 | 6.0 | 14.0 | 0.00 | 0.00 | 0.00 | 68 | 1019.6 |
| 20260506172801 | 56 | 220 | 6.0 | 11.0 | 0.00 | 0.00 | 0.00 | 68 | 1019.6 |
| 20260506172306 | 56 | 260 | 6.0 | 11.0 | 0.00 | 0.00 | 0.00 | 68 | 1019.6 |
| 20260506172050 | 56 | 200 | 5.0 | 9.0 | 0.00 | 0.00 | 0.00 | 68 | 1019.7 |
| 20260506171301 | 56 | 275 | 4.0 | 11.0 | 0.00 | 0.00 | 0.00 | 69 | 1019.7 |
| 20260506171048 | 56 | 255 | 5.0 | 11.0 | 0.00 | 0.00 | 0.00 | 69 | 1019.7 |
| 20260506170304 | 56 | 277 | 4.0 | 10.0 | 0.00 | 0.00 | 0.00 | 68 | 1019.7 |
| 20260506165801 | 56 | 240 | 4.0 | 9.0 | 0.00 | 0.00 | 0.00 | 69 | 1019.7 |
| 20260506165552 | 56 | 223 | 4.0 | 8.0 | 0.00 | 0.00 | 0.00 | 70 | 1019.7 |
| 20260506165121 | 56 | 247 | 4.0 | 11.0 | 0.00 | 0.00 | 0.00 | 70 | 1019.7 |
| 20260506164303 | 56 | 233 | 4.0 | 11.0 | 0.00 | 0.00 | 0.00 | 70 | 1019.7 |
| 20260506163807 | 56 | 221 | 5.0 | 12.0 | 0.00 | 0.00 | 0.00 | 71 | 1019.7 |
| 20260506162739 | 55 | 258 | 5.0 | 11.0 | 0.00 | 0.00 | 0.00 | 71 | 1019.6 |
| 20260506162233 | 55 | 223 | 7.0 | 15.0 | 0.00 | 0.00 | 0.00 | 71 | 1019.6 |
| 20260506161732 | 55 | 215 | 6.0 | 15.0 | 0.00 | 0.00 | 0.00 | 72 | 1019.4 |
| 20260506161228 | 55 | 239 | 5.0 | 11.0 | 0.00 | 0.00 | 0.00 | 72 | 1019.4 |
| 20260506160955 | 55 | 261 | 5.0 | 11.0 | 0.00 | 0.00 | 0.00 | 72 | 1019.4 |
| 20260506160213 | 55 | 205 | 5.0 | 11.0 | 0.00 | 0.00 | 0.00 | 73 | 1019.2 |
| 20260506155711 | 54 | 206 | 5.0 | 11.0 | 0.00 | 0.00 | 0.00 | 73 | 1019.2 |
| 20260506155211 | 54 | 236 | 4.0 | 11.0 | 0.00 | 0.00 | 0.00 | 74 | 1019.2 |
| 20260506154712 | 54 | 275 | 3.0 | 7.0 | 0.00 | 0.00 | 0.00 | 75 | 1019.3 |
| 20260506154209 | 54 | 245 | 3.0 | 7.0 | 0.00 | 0.00 | 0.00 | 75 | 1019.3 |
| 20260506153710 | 54 | 244 | 3.0 | 5.0 | 0.00 | 0.00 | 0.00 | 77 | 1019.3 |
| 20260506153209 | 54 | 209 | 3.0 | 6.0 | 0.00 | 0.00 | 0.00 | 77 | 1019.2 |
| 20260506152712 | 54 | 208 | 3.0 | 6.0 | 0.00 | 0.00 | 0.00 | 77 | 1019.2 |
| 20260506152210 | 53 | 220 | 3.0 | 6.0 | 0.00 | 0.00 | 0.00 | 78 | 1019.2 |
| 20260506151709 | 53 | 217 | 3.0 | 6.0 | 0.00 | 0.00 | 0.00 | 79 | 1019.4 |
| 20260506151448 | 53 | 280 | 3.0 | 6.0 | 0.00 | 0.00 | 0.00 | 79 | 1019.4 |
| 20260506150705 | 53 | 267 | 3.0 | 6.0 | 0.00 | 0.00 | 0.00 | 79 | 1019.4 |
| 20260506150514 | 53 | 250 | 4.0 | 7.0 | 0.00 | 0.00 | 0.00 | 79 | 1019.2 |
| 20260506145203 | 53 | 236 | 4.0 | 7.0 | 0.00 | 0.00 | 0.00 | 80 | 1019.2 |
| 20260506144658 | 53 | 233 | 4.0 | 7.0 | 0.00 | 0.00 | 0.00 | 80 | 1019.2 |
| 20260506144155 | 53 | 203 | 4.0 | 9.0 | 0.00 | 0.00 | 0.00 | 80 | 1019.2 |
| 20260506143644 | 53 | 238 | 4.0 | 9.0 | 0.00 | 0.00 | 0.00 | 80 | 1019.2 |
| 20260506143134 | 53 | 239 | 4.0 | 9.0 | 0.00 | 0.00 | 0.00 | 80 | 1019.1 |
| 20260506142624 | 53 | 239 | 5.0 | 11.0 | 0.00 | 0.00 | 0.00 | 80 | 1019.1 |
| 20260506142125 | 53 | 248 | 5.0 | 11.0 | 0.00 | 0.00 | 0.00 | 80 | 1019.1 |
| 20260506141612 | 53 | 237 | 5.0 | 11.0 | 0.00 | 0.00 | 0.00 | 80 | 1018.7 |
| 20260506141111 | 53 | 257 | 5.0 | 11.0 | 0.00 | 0.00 | 0.00 | 80 | 1018.7 |
| 20260506140605 | 53 | 245 | 4.0 | 10.0 | 0.00 | 0.00 | 0.00 | 80 | 1018.8 |
| 20260506140119 | 53 | 277 | 3.0 | 7.0 | 0.00 | 0.00 | 0.00 | 81 | 1018.8 |
| 20260506135046 | 53 | 261 | 4.0 | 10.0 | 0.00 | 0.00 | 0.00 | 81 | 1018.8 |
| 20260506134545 | 53 | 223 | 3.0 | 9.0 | 0.00 | 0.00 | 0.00 | 81 | 1018.8 |
| 20260506134111 | 53 | 231 | 3.0 | 9.0 | 0.00 | 0.00 | 0.00 | 82 | 1018.8 |
| 20260506133324 | 53 | 240 | 4.0 | 9.0 | 0.00 | 0.00 | 0.00 | 82 | 1018.8 |
| 20260506132543 | 53 | 268 | 3.0 | 9.0 | 0.00 | 0.00 | 0.00 | 82 | 1018.8 |
| 20260506132038 | 53 | 249 | 3.0 | 7.0 | 0.00 | 0.00 | 0.00 | 82 | 1018.8 |
| 20260506131537 | 53 | 257 | 3.0 | 6.0 | 0.00 | 0.00 | 0.00 | 82 | 1018.8 |
| 20260506131037 | 53 | 246 | 4.0 | 9.0 | 0.00 | 0.00 | 0.00 | 82 | 1018.8 |
| 20260506130536 | 53 | 247 | 4.0 | 9.0 | 0.00 | 0.00 | 0.00 | 82 | 1018.5 |
| 20260506130343 | 53 | 261 | 3.0 | 6.0 | 0.00 | 0.00 | 0.00 | 84 | 1018.5 |
| 20260506125032 | 52 | 190 | 3.0 | 6.0 | 0.00 | 0.00 | 0.00 | 83 | 1018.6 |
| 20260506124531 | 52 | 251 | 3.0 | 6.0 | 0.00 | 0.00 | 0.00 | 83 | 1018.6 |
| 20260506124030 | 52 | 266 | 3.0 | 4.0 | 0.00 | 0.00 | 0.00 | 83 | 1018.6 |
| 20260506123530 | 52 | 272 | 3.0 | 6.0 | 0.00 | 0.00 | 0.00 | 83 | 1018.4 |
| 20260506123029 | 53 | 293 | 4.0 | 7.0 | 0.00 | 0.00 | 0.00 | 83 | 1018.4 |
| 20260506122818 | 53 | 285 | 3.0 | 7.0 | 0.00 | 0.00 | 0.00 | 82 | 1018.4 |
| 20260506122027 | 53 | 261 | 4.0 | 7.0 | 0.00 | 0.00 | 0.00 | 82 | 1018.3 |
| 20260506121524 | 53 | 270 | 4.0 | 8.0 | 0.00 | 0.00 | 0.00 | 82 | 1018.3 |
| 20260506121011 | 53 | 247 | 4.0 | 8.0 | 0.00 | 0.00 | 0.00 | 82 | 1018.3 |
| 20260506120509 | 53 | 231 | 4.0 | 7.0 | 0.00 | 0.00 | 0.00 | 82 | 1018.2 |